Weather History for PAVL - July, 2013

Change the Weather History Date:

Wednesday, July 31, 2013

  Actual Average Record
Temperature  
Mean Temperature 49 °F -  
Max Temperature 53 °F - - ()
Min Temperature 46 °F - - ()
Degree Days  
Heating Degree Days 16    
Moisture  
Dew Point 49 °F    
Average Humidity 100    
Maximum Humidity 100    
Minimum Humidity 96    
Precipitation  
Precipitation 0.00 in - - ()
Sea Level Pressure  
Sea Level Pressure 30.12 in    
Wind  
Wind Speed 8 mph (South)    
Max Wind Speed 14 mph    
Max Gust Speed -    
Visibility 8 miles    
Events Rain    
T = Trace of Precipitation, MM = Missing Value Source: NWS Daily Summary

Daily Weather History Graph

Daily Weather History Graph

Search for Another Location

Airport or City:

Trip Planner

Search our weather history database for the weather conditions in past years. The results will help you decide how hot, cold, wet, or windy it might be!

Date:

Astronomy

Jul. 31, 2013 Rise Set
Actual Time 5:15 AM AKDT 12:49 AM AKDT
Civil Twilight 3:37 AM AKDT 2:32 AM AKDT
Nautical Twilight Sun does not set Sun does not set
Astronomical Twilight Sun does not set Sun does not set
Moon 12:26 AM AKDT (7/31) 8:33 PM AKDT (7/31)
Length of Visible Light 22h 55m
Length of Day
19h 33m
Waning Crescent, 30% of the Moon is Illuminated
Jul 31
Waning Crescent
Aug 6
New
Aug 14
First Quarter
Aug 20
Full
Aug 28
Last Quarter

Hourly Weather History & Observations

Time (AKDT) Temp. Windchill Dew Point Humidity Pressure Visibility Wind Dir Wind Speed Gust Speed Precip Events Conditions
12:53 AM 46.0 °F 41.9 °F 46.0 °F 100% 30.17 in 7.0 mi South 8.1 mph - N/A   Overcast
1:53 AM 46.0 °F 41.9 °F 46.0 °F 100% 30.18 in 8.0 mi South 8.1 mph - N/A   Overcast
2:53 AM 46.0 °F 42.5 °F 46.0 °F 100% 30.18 in 8.0 mi South 6.9 mph - N/A   Overcast
3:20 AM 46.4 °F 41.5 °F 46.4 °F 100% 30.18 in 8.0 mi South 10.4 mph - N/A   Overcast
3:41 AM 46.4 °F 42.4 °F 46.4 °F 100% 30.17 in 7.0 mi South 8.1 mph - N/A   Overcast
3:53 AM 46.0 °F 41.9 °F 46.0 °F 100% 30.17 in 9.0 mi South 8.1 mph - 0.00 in Rain Light Rain
4:53 AM 46.0 °F 39.9 °F 46.0 °F 100% 30.17 in 9.0 mi South 13.8 mph - 0.00 in   Overcast
5:53 AM 46.9 °F - 46.9 °F 100% 30.16 in 9.0 mi South 12.7 mph - N/A   Overcast
6:53 AM 46.9 °F - 46.9 °F 100% 30.15 in 7.0 mi South 11.5 mph - N/A   Overcast
7:53 AM 46.9 °F - 46.9 °F 100% 30.16 in 7.0 mi South 10.4 mph - N/A   Overcast
8:53 AM 48.0 °F - 48.0 °F 100% 30.15 in 8.0 mi South 10.4 mph - N/A   Overcast
9:53 AM 48.0 °F - 48.0 °F 100% 30.14 in 8.0 mi South 12.7 mph - N/A   Overcast
10:53 AM 48.9 °F - 48.9 °F 100% 30.14 in 9.0 mi SSE 9.2 mph - N/A   Overcast
11:53 AM 48.9 °F - 48.9 °F 100% 30.14 in 9.0 mi SSE 8.1 mph - N/A   Overcast
12:46 PM 50.0 °F - 50.0 °F 100% 30.14 in 8.0 mi SSE 8.1 mph - N/A   Overcast
12:53 PM 50.0 °F - 50.0 °F 100% 30.14 in 8.0 mi SSE 9.2 mph - N/A   Overcast
1:53 PM 51.1 °F - 50.0 °F 96% 30.12 in 9.0 mi SSE 6.9 mph - N/A   Overcast
2:53 PM 52.0 °F - 51.1 °F 97% 30.12 in 9.0 mi SSE 8.1 mph - N/A   Overcast
3:53 PM 52.0 °F - 51.1 °F 97% 30.10 in 8.0 mi SSE 4.6 mph - N/A   Overcast
4:53 PM 52.0 °F - 52.0 °F 100% 30.09 in 9.0 mi South 3.5 mph - N/A   Overcast
5:53 PM 51.1 °F - 51.1 °F 100% 30.07 in 8.0 mi SW 3.5 mph - N/A   Overcast
6:53 PM 52.0 °F - 52.0 °F 100% 30.06 in 8.0 mi SW 3.5 mph - N/A   Clear
7:53 PM 52.0 °F - 51.1 °F 97% 30.04 in 8.0 mi Calm Calm - N/A   Clear
8:53 PM 52.0 °F - 52.0 °F 100% 30.03 in 8.0 mi SW 4.6 mph - N/A   Clear
9:53 PM 51.1 °F - 51.1 °F 100% 30.02 in 9.0 mi WSW 4.6 mph - N/A   Clear
10:53 PM 50.0 °F - 50.0 °F 100% 30.01 in 8.0 mi Calm Calm - N/A   Clear
11:53 PM 48.0 °F - 48.0 °F 100% 29.99 in 8.0 mi East 4.6 mph - N/A   Clear